Torna al catalogo

STARLINK-34340

AttivoComunicazioniSSO
NORAD 64163·PAYLOAD·🇺🇸 United States

Lanciato May 27, 2025 da Vandenberg Space Force Base

Loading…

Prossimi Passaggi (prossime 24 ore)

TLE

AggiornatoSource: CelesTrak SupGP

Epoca: Sep 15, 2026, 04:04 UTC

1 64163C 25112T   26258.16993056 -.00010898  00000+0 -33823-3 0  2580
2 64163  97.2824 305.3688 0000893  93.9561 306.0763 15.33450697    19

Traccia STARLINK-34340 in tempo reale con AllMySat

Download on the App Store